Weather History for Mannheim, Germany

Change the Weather History Date:

Thursday, February 7, 2013

  Actual Average (EDDF) Record (EDDF)
Temperature  
Mean Temperature 35 °F -  
Max Temperature 41 °F 43 °F 57 °F (2001)
Min Temperature 29 °F 31 °F 5 °F (2012)
Degree Days  
Heating Degree Days 30    
Moisture  
Dew Point 31 °F    
Average Humidity 80    
Maximum Humidity 99    
Minimum Humidity 58    
Precipitation  
Precipitation 0.04 in - - ()
Sea Level Pressure  
Sea Level Pressure 29.84 in    
Wind  
Wind Speed 6 mph ()    
Max Wind Speed 12 mph    
Max Gust Speed -    
Visibility 6.3 miles    
Events Rain , Snow    
Averages and records for this station are not official NWS values.
T = Trace of Precipitation, MM = Missing Value Source: Averaged Metar Reports

Daily Weather History Graph

Daily Weather History Graph

Search for Another Location

Airport:

Trip Planner

Search our weather history database for the weather conditions in past years. The results will help you decide how hot, cold, wet, or windy it might be!

Date:

Astronomy

Feb. 07, 2013 Rise Set
Actual Time 7:48 AM CET 5:31 PM CET
Civil Twilight 7:14 AM CET 6:05 PM CET
Nautical Twilight 6:37 AM CET 6:43 PM CET
Astronomical Twilight 5:59 AM CET 7:20 PM CET
Moon 5:23 AM CET (2/7) 2:28 PM CET (2/7)
Length of Visible Light 10h 50m
Length of Day
9h 43m
Waning Crescent, 11% of the Moon is Illuminated
Feb 7
Waning Crescent
Feb 10
New
Feb 17
First Quarter
Feb 25
Full
Mar 4
Last Quarter

Hourly Weather History & Observations

Time (CET) Temp. Windchill Dew Point Humidity Pressure Visibility Wind Dir Wind Speed Gust Speed Precip Events Conditions
12:00 AM 34 °F - 32 °F 89% 29.70 in 11 mi NNW 6.7 mph - - Rain Drizzle
1:00 AM 32 °F - 30 °F 90% 29.73 in 7 mi NNW 6.7 mph - -   Clear
2:00 AM 31 °F - 30 °F 93% 29.74 in 5 mi NNW 4.5 mph - -  
3:00 AM 31 °F - 31 °F 99% 29.75 in 3 mi SE 2.2 mph - -   Light Ice Pellets
4:00 AM 32 °F - 31 °F 94% 29.76 in 3 mi SSE 2.2 mph - - Snow Snow
5:00 AM 32 °F - 31 °F 97% 29.78 in 2 mi SE 4.5 mph - - Snow Snow
5:50 AM 33.8 °F - 30.2 °F 87% 29.77 in 5.0 mi Variable 1.2 mph - N/A   Overcast
6:00 AM 32 °F - 31 °F 96% 29.79 in 4 mi West 4.5 mph - -   Mist
6:20 AM 33.8 °F 29.6 °F 30.2 °F 87% 29.77 in 6.2 mi West 4.6 mph - N/A   Scattered Clouds
6:50 AM 33.8 °F 29.6 °F 30.2 °F 87% 29.77 in 6.2 mi West 4.6 mph - N/A   Scattered Clouds
7:00 AM 31 °F - 31 °F 97% 29.81 in 5 mi WNW 4.5 mph - -   Clear
7:20 AM 35.6 °F 30.7 °F 30.2 °F 81% 29.80 in 6.2 mi West 5.8 mph - N/A   Mostly Cloudy
7:50 AM 35.6 °F 29.9 °F 30.2 °F 81% 29.80 in 6.2 mi West 6.9 mph - N/A   Mostly Cloudy
8:00 AM 35 °F - 31 °F 80% 29.82 in 11 mi West 6.7 mph - - Snow Snow
8:20 AM 35.6 °F 30.7 °F 30.2 °F 81% 29.80 in 6.2 mi WSW 5.8 mph - N/A   Overcast
8:50 AM 35.6 °F 31.7 °F 30.2 °F 81% 29.83 in 6.2 mi WSW 4.6 mph - N/A   Mostly Cloudy
9:00 AM 33 °F - 31 °F 90% 29.84 in 4 mi SSW 2.2 mph - - Snow Snow
9:20 AM 35.6 °F 31.7 °F 30.2 °F 81% 29.83 in 6.2 mi WSW 4.6 mph - N/A   Mostly Cloudy
9:50 AM 35.6 °F 31.7 °F 30.2 °F 81% 29.83 in 6.2 mi WSW 4.6 mph - N/A   Mostly Cloudy
10:00 AM 36 °F - 32 °F 79% 29.85 in 12 mi SW 6.7 mph - -   Clear
10:20 AM 35.6 °F 29.9 °F 30.2 °F 81% 29.83 in 6.2 mi WSW 6.9 mph - N/A   Mostly Cloudy
10:50 AM 37.4 °F 30.8 °F 30.2 °F 75% 29.83 in 5.6 mi WSW 9.2 mph - N/A Rain , Snow Light Rain
11:00 AM 37 °F - 31 °F 73% 29.86 in 11 mi WSW 8.9 mph - - Snow Light Snow
11:20 AM 37.4 °F 32.1 °F 30.2 °F 75% 29.86 in 5.6 mi WSW 6.9 mph - N/A Rain , Snow Light Rain
11:50 AM 37.4 °F 30.3 °F 30.2 °F 75% 29.86 in 6.2 mi West 10.4 mph - N/A Rain , Snow Light Rain
12:00 PM 38 °F - 31 °F 66% 29.87 in 22 mi West 11.2 mph - - Snow Snow
12:20 PM 37.4 °F 30.8 °F 30.2 °F 75% 29.86 in 6.2 mi West 9.2 mph - N/A   Mostly Cloudy
12:50 PM 37.4 °F 29.8 °F 30.2 °F 75% 29.86 in 6.2 mi West 11.5 mph - N/A   Mostly Cloudy
1:00 PM 38 °F - 31 °F 68% 29.86 in 19 mi West 11.2 mph - - Rain Light Rain
1:20 PM 39.2 °F 32.0 °F 32.0 °F 75% 29.86 in 6.2 mi West 11.5 mph - N/A   Mostly Cloudy
1:50 PM 37.4 °F 30.3 °F 32.0 °F 81% 29.86 in 1.2 mi West 10.4 mph - N/A Rain , Snow Rain Showers
2:20 PM 39.2 °F 34.2 °F 32.0 °F 75% 29.86 in 6.2 mi NW 6.9 mph - N/A   Mostly Cloudy
2:50 PM 41.0 °F 35.8 °F 30.2 °F 65% 29.86 in 6.2 mi NNW 8.1 mph - N/A   Scattered Clouds
3:00 PM 40 °F - 33 °F 68% 29.86 in 31 mi WNW 4.5 mph - - Rain Rain
3:20 PM 39.2 °F 32.5 °F 28.4 °F 65% 29.86 in 6.2 mi West 10.4 mph - N/A   Mostly Cloudy
3:50 PM 39.2 °F 32.5 °F 26.6 °F 61% 29.86 in 6.2 mi WNW 10.4 mph - N/A   Mostly Cloudy
4:00 PM 39 °F - 29 °F 58% 29.87 in 37 mi WNW 4.5 mph - - Snow Snow
4:20 PM 39.2 °F 34.2 °F 28.4 °F 65% 29.86 in 6.2 mi West 6.9 mph - N/A   Mostly Cloudy
4:50 PM 37.4 °F 30.3 °F 32.0 °F 81% 29.86 in 6.2 mi West 10.4 mph - N/A   Scattered Clouds
5:00 PM 38 °F - 32 °F 70% 29.88 in 28 mi West 8.9 mph - -  
5:20 PM 37.4 °F 32.1 °F 30.2 °F 75% 29.86 in 6.2 mi West 6.9 mph - N/A   Partly Cloudy
5:50 PM 35.6 °F 30.7 °F 30.2 °F 81% 29.86 in 6.2 mi WSW 5.8 mph - N/A   Partly Cloudy
6:20 PM 35.6 °F 31.7 °F 30.2 °F 81% 29.89 in 6.2 mi WSW 4.6 mph - N/A   Partly Cloudy
6:50 PM 35.6 °F 30.7 °F 30.2 °F 81% 29.89 in 6.2 mi West 5.8 mph - N/A   Partly Cloudy
7:20 PM 35.6 °F 30.7 °F 30.2 °F 81% 29.89 in - WSW 5.8 mph - N/A   Clear
7:50 PM 35.6 °F 30.7 °F 30.2 °F 81% 29.89 in 6.2 mi SW 5.8 mph - N/A   Mostly Cloudy
8:00 PM 34 °F - 31 °F 85% 29.90 in 25 mi SSW 4.5 mph - -  
8:20 PM 35.6 °F 31.7 °F 30.2 °F 81% 29.89 in 6.2 mi WSW 4.6 mph - N/A Snow Light Snow
8:50 PM 35.6 °F 30.7 °F 32.0 °F 87% 29.89 in 6.2 mi WSW 5.8 mph - N/A Rain Light Rain
9:00 PM 35 °F - 33 °F 87% 29.91 in 5 mi WSW 4.5 mph - - Snow Heavy Snow
11:00 PM 33 °F - 32 °F 96% 29.91 in 3 mi North 4.5 mph - - Snow Light Snow